Aérodrome :
LOGIN :

S'inscrire | Disclaimer

   EN    FR    IT 

 










Légende :    VFR   VFR Marginal   IFR   IFR Intensif   IFR Très Intensif
Visi : 
Plafond : 
>= 8 km
>= 3000ft
5 à 8 km
1000 à 3000 ft
1500m à 5 km
500 à 1000 ft
800 à 1500m
200 à 500 ft
< 800m
< 200 ft
Symboles :   Orages  Brouillard  Fortes neiges  Fortes précipitations  Vent > 20 kt
SIGMETs :   Divers  Orages  Givrage  Turbulence  Onde Orograph.  Cendres Volcan.







- Altitude de l'aérodrome : 1325 ft
- Code IATA : EBU
- Voir les cartes d'approche


LFMH - St-Etienne Boutheon

DERNIER METAR :
  • 201400Z AUTO 33004KT 270V030 CAVOK 30/10 Q1018 NOSIG

METARs EXPIRÉS :
  • 201330Z AUTO VRB03KT CAVOK 29/10 Q1019 NOSIG
  • 201300Z AUTO 10005KT 050V160 CAVOK 29/12 Q1019 NOSIG
  • 201230Z AUTO 21003KT 140V270 CAVOK 29/13 Q1020 NOSIG
  • 201200Z AUTO VRB04KT CAVOK 28/14 Q1020 NOSIG
  • 201130Z AUTO VRB03KT CAVOK 27/15 Q1020 NOSIG
  • 201100Z AUTO 05003KT 360V140 CAVOK 26/15 Q1021 NOSIG

TAF TAF LFMH
Valide du 20 à 09h jusqu'au 21 à 09h UTC


200800Z 2009/2109 VRB03KT CAVOK
BECMG 2103/2106 16010G20KT
ATIS : +33 4 77 36 17 51
Pas de NOTAMs connus pour ce terrain.



MET'MAP, la Météo Aéronautique d'un coup d'oeil ! - Copyright ORBIFLY Décembre 2007 - Disclaimer

ORBIFLY MET'MAP TEAM :

Programmation & Développement : Alexandra Zaïnal
Conception & Développement : Baudouin d'Aumeries
Co-Programmation & Développement : Marc-Olivier Méhu
Soutien technique & logistique : Manuel Goepfert

Contact : metmap@orbifly.com




SOURCES & CREDITS :

   NOAA